When you browse on this site, cookies collect data to enhance your experience and personalize the content and advertising you see.
Visit our Privacy Policy to learn more. By continuing to use the site, you agree to this use of cookies and data.
  • In Österreich
  • Länderverzeichnis
  • Für 7 Tage
  • Wassertemperatur
  • Satellitenkarten
  • Wetterkarte
  • News
  • Widgets
  • user-avatar
    Anmelden

    Stündliche Wetter Wien

    Heute, 19 April, Freitag

    Zeit Temperatur Niederschläge Wind Luftdruck Luftfeuchtigkeit
    00:00 +11°C° 0 mm 1 m/S 753 mmHg 66%
    01:00 +10°C° 0 mm 0 m/S 753 mmHg 66%
    02:00 +9°C° 0 mm 0 m/S 753 mmHg 67%
    03:00 +9°C° 0 mm 0 m/S 753 mmHg 69%
    04:00 +9°C° 0 mm 0 m/S 753 mmHg 71%
    05:00 +10°C° 0 mm 0 m/S 753 mmHg 69%
    06:00 +11°C° 0 mm 0 m/S 754 mmHg 67%
    07:00 +13°C° 0 mm 1 m/S 754 mmHg 64%
    08:00 +15°C° 0 mm 1 m/S 754 mmHg 59%
    09:00 +16°C° 0 mm 1 m/S 753 mmHg 54%
    10:00 +19°C° 0 mm 1 m/S 753 mmHg 49%
    11:00 +19°C° 0 mm 2 m/S 753 mmHg 46%
    12:00 +20°C° 0 mm 2 m/S 753 mmHg 43%
    13:00 +21°C° 0 mm 2 m/S 753 mmHg 40%
    14:00 +21°C° 0 mm 2 m/S 753 mmHg 39%
    15:00 +21°C° 0 mm 3 m/S 752 mmHg 39%
    16:00 +21°C° 0 mm 3 m/S 752 mmHg 38%
    17:00 +19°C° 0 mm 3 m/S 752 mmHg 43%
    18:00 +18°C° 0 mm 2 m/S 752 mmHg 48%
    19:00 +16°C° 0 mm 2 m/S 752 mmHg 53%
    20:00 +15°C° 0 mm 2 m/S 753 mmHg 55%
    21:00 +14°C° 0 mm 2 m/S 753 mmHg 57%
    22:00 +13°C° 0 mm 1 m/S 753 mmHg 59%
    23:00 +12°C° 0 mm 1 m/S 754 mmHg 60%

    Morgen, 20 April, Samstag

    Zeit Temperatur Niederschläge Wind Luftdruck Luftfeuchtigkeit
    00:00 +11°C° 0 mm 1 m/S 754 mmHg 61%
    01:00 +11°C° 0 mm 1 m/S 754 mmHg 63%
    02:00 +10°C° 0 mm 1 m/S 754 mmHg 65%
    03:00 +10°C° 0 mm 1 m/S 754 mmHg 66%
    04:00 +9°C° 0 mm 1 m/S 754 mmHg 68%
    05:00 +10°C° 0 mm 1 m/S 754 mmHg 66%
    06:00 +11°C° 0 mm 1 m/S 754 mmHg 64%
    07:00 +12°C° 0 mm 1 m/S 754 mmHg 61%
    08:00 +14°C° 0 mm 1 m/S 754 mmHg 55%
    09:00 +16°C° 0 mm 1 m/S 753 mmHg 49%
    10:00 +19°C° 0 mm 1 m/S 753 mmHg 43%
    11:00 +19°C° 0 mm 1 m/S 753 mmHg 39%
    12:00 +20°C° 0 mm 1 m/S 753 mmHg 36%
    13:00 +21°C° 0 mm 1 m/S 752 mmHg 33%
    14:00 +21°C° 0 mm 1 m/S 752 mmHg 32%
    15:00 +21°C° 0 mm 1 m/S 751 mmHg 32%
    16:00 +21°C° 0 mm 1 m/S 751 mmHg 32%
    17:00 +19°C° 0 mm 1 m/S 751 mmHg 36%
    18:00 +18°C° 0 mm 1 m/S 751 mmHg 40%
    19:00 +15°C° 0 mm 1 m/S 750 mmHg 44%
    20:00 +14°C° 0 mm 1 m/S 751 mmHg 46%
    21:00 +13°C° 0 mm 1 m/S 751 mmHg 49%
    22:00 +13°C° 0 mm 1 m/S 751 mmHg 51%
    23:00 +12°C° 0 mm 1 m/S 750 mmHg 53%

    übermorgen, 21 April, Sonntag

    Zeit Temperatur Niederschläge Wind Luftdruck Luftfeuchtigkeit
    00:00 +12°C° 0 mm 1 m/S 750 mmHg 56%
    01:00 +11°C° 0 mm 1 m/S 750 mmHg 58%
    02:00 +11°C° 0 mm 1 m/S 750 mmHg 60%
    03:00 +10°C° 0 mm 1 m/S 749 mmHg 62%
    04:00 +10°C° 0 mm 1 m/S 749 mmHg 64%
    05:00 +10°C° 0 mm 1 m/S 749 mmHg 62%
    06:00 +11°C° 0 mm 1 m/S 749 mmHg 60%
    07:00 +12°C° 0 mm 1 m/S 749 mmHg 58%
    08:00 +14°C° 0 mm 2 m/S 749 mmHg 52%
    09:00 +16°C° 0 mm 2 m/S 748 mmHg 46%
    10:00 +17°C° 0 mm 2 m/S 748 mmHg 39%
    11:00 +18°C° 0 mm 2 m/S 748 mmHg 38%
    12:00 +19°C° 0 mm 2 m/S 747 mmHg 37%
    13:00 +20°C° 0 mm 2 m/S 747 mmHg 36%
    14:00 +20°C° 0 mm 2 m/S 746 mmHg 36%
    15:00 +20°C° 0 mm 2 m/S 746 mmHg 36%
    16:00 +20°C° 0 mm 2 m/S 745 mmHg 36%
    17:00 +18°C° 0 mm 2 m/S 745 mmHg 40%
    18:00 +16°C° 0 mm 2 m/S 745 mmHg 45%
    19:00 +15°C° 0 mm 1 m/S 745 mmHg 50%
    20:00 +14°C° 0 mm 1 m/S 745 mmHg 52%
    21:00 +13°C° 0 mm 1 m/S 745 mmHg 55%
    22:00 +12°C° 0 mm 1 m/S 745 mmHg 58%
    23:00 +12°C° 0 mm 1 m/S 745 mmHg 59%

    22 April, Montag

    Zeit Temperatur Niederschläge Wind Luftdruck Luftfeuchtigkeit
    00:00 +11°C° 0 mm 1 m/S 744 mmHg 61%
    01:00 +10°C° 0 mm 1 m/S 744 mmHg 63%
    02:00 +10°C° 0 mm 1 m/S 744 mmHg 65%
    03:00 +10°C° 0 mm 1 m/S 743 mmHg 67%
    04:00 +9°C° 0 mm 1 m/S 743 mmHg 68%
    05:00 +10°C° 0 mm 1 m/S 743 mmHg 69%
    06:00 +9°C° 0 mm 2 m/S 742 mmHg 70%
    07:00 +10°C° 0 mm 2 m/S 742 mmHg 70%
    08:00 +11°C° 0 mm 3 m/S 742 mmHg 67%
    09:00 +13°C° 0 mm 4 m/S 742 mmHg 64%
    10:00 +14°C° 0 mm 5 m/S 741 mmHg 61%
    11:00 +15°C° 0 mm 5 m/S 741 mmHg 56%
    12:00 +17°C° 0 mm 6 m/S 740 mmHg 51%
    13:00 +19°C° 0 mm 6 m/S 740 mmHg 45%
    14:00 +18°C° 0 mm 7 m/S 740 mmHg 45%
    15:00 +18°C° 0 mm 7 m/S 739 mmHg 46%
    16:00 +18°C° 0 mm 7 m/S 739 mmHg 46%
    17:00 +17°C° 0 mm 7 m/S 738 mmHg 50%
    18:00 +16°C° 0 mm 6 m/S 738 mmHg 54%
    19:00 +15°C° 0 mm 6 m/S 738 mmHg 58%
    20:00 +14°C° 0 mm 6 m/S 738 mmHg 62%
    21:00 +14°C° 0 mm 6 m/S 738 mmHg 66%
    22:00 +13°C° 0 mm 6 m/S 738 mmHg 70%
    23:00 +12°C° 0.1 mm 7 m/S 738 mmHg 71%

    23 April, Dienstag

    Zeit Temperatur Niederschläge Wind Luftdruck Luftfeuchtigkeit
    00:00 +12°C° 0.1 mm 7 m/S 738 mmHg 72%
    01:00 +12°C° 0.1 mm 7 m/S 738 mmHg 73%
    02:00 +11°C° 0 mm 8 m/S 737 mmHg 72%
    03:00 +11°C° 0 mm 8 m/S 737 mmHg 71%
    04:00 +10°C° 0 mm 8 m/S 737 mmHg 71%
    05:00 +10°C° 0.1 mm 8 m/S 737 mmHg 73%
    06:00 +10°C° 0.1 mm 8 m/S 737 mmHg 75%
    07:00 +10°C° 0.1 mm 8 m/S 737 mmHg 77%
    08:00 +10°C° 0.3 mm 8 m/S 737 mmHg 80%
    09:00 +10°C° 0.3 mm 9 m/S 738 mmHg 83%
    10:00 +8°C° 0.3 mm 9 m/S 738 mmHg 86%
    11:00 +10°C° 0.1 mm 8 m/S 738 mmHg 84%
    12:00 +10°C° 0.1 mm 8 m/S 738 mmHg 82%
    13:00 +11°C° 0.1 mm 8 m/S 738 mmHg 80%
    14:00 +11°C° 0.6 mm 8 m/S 737 mmHg 82%
    15:00 +11°C° 0.6 mm 7 m/S 737 mmHg 85%
    16:00 +11°C° 0.6 mm 7 m/S 737 mmHg 87%
    17:00 +12°C° 0.2 mm 8 m/S 737 mmHg 88%
    18:00 +12°C° 0.2 mm 8 m/S 737 mmHg 89%
    19:00 +12°C° 0.2 mm 9 m/S 737 mmHg 89%
    20:00 +12°C° 0 mm 8 m/S 738 mmHg 89%
    21:00 +12°C° 0 mm 8 m/S 738 mmHg 89%
    22:00 +12°C° 0 mm 7 m/S 738 mmHg 89%
    23:00 +12°C° 0 mm 7 m/S 738 mmHg 89%

    24 April, Mittwoch

    Zeit Temperatur Niederschläge Wind Luftdruck Luftfeuchtigkeit
    00:00 +12°C° 0 mm 7 m/S 739 mmHg 90%
    01:00 +11°C° 0 mm 6 m/S 739 mmHg 90%
    02:00 +11°C° 0 mm 6 m/S 739 mmHg 90%
    03:00 +11°C° 0 mm 6 m/S 739 mmHg 91%
    04:00 +12°C° 0 mm 5 m/S 740 mmHg 91%
    05:00 +12°C° 0 mm 5 m/S 740 mmHg 90%
    06:00 +13°C° 0 mm 5 m/S 740 mmHg 88%
    07:00 +13°C° 0 mm 5 m/S 741 mmHg 87%
    08:00 +14°C° 0 mm 4 m/S 741 mmHg 83%
    09:00 +15°C° 0 mm 4 m/S 741 mmHg 78%
    10:00 +18°C° 0 mm 4 m/S 742 mmHg 74%
    11:00 +19°C° 0 mm 5 m/S 742 mmHg 68%
    12:00 +21°C° 0 mm 5 m/S 742 mmHg 63%
    13:00 +22°C° 0 mm 5 m/S 742 mmHg 57%
    14:00 +23°C° 0.3 mm 5 m/S 742 mmHg 58%
    15:00 +23°C° 0.3 mm 5 m/S 742 mmHg 58%
    16:00 +23°C° 0.3 mm 5 m/S 742 mmHg 59%
    17:00 +21°C° 0.4 mm 5 m/S 742 mmHg 65%
    18:00 +20°C° 0.4 mm 5 m/S 742 mmHg 71%
    19:00 +17°C° 0.4 mm 5 m/S 743 mmHg 77%
    20:00 +18°C° 0 mm 4 m/S 743 mmHg 79%
    21:00 +17°C° 0 mm 4 m/S 743 mmHg 82%
    22:00 +15°C° 0 mm 4 m/S 744 mmHg 85%
    23:00 +15°C° 0 mm 4 m/S 744 mmHg 86%
    Mehr zeigen